sat.trackr.live / text

‹ back to catalog

2024-174A

NORAD 61238 · 2024-174A

PAYLOAD ACTIVE UNKNOWN

§ Identity

Operator
Country
PRC
Launch date
2024-09-24
Launch site
JSC
Launch vehicle
Mass (kg)
RCS (m²)

External: N2YO · Heavens-Above · Gunter

§ Orbital elements

Epoch: 2026-05-24T18:01:29.489664Z

Period
94.79 min
Inclination
97.4477°
Eccentricity
0.0001833
Mean motion
15.19178195 rev/d
Perigee alt
507.1 km
Apogee alt
509.6 km
Semi-major
6,886.5 km
B*
1.8679e-4
RAAN
152.8454°
Arg perigee
67.0096°
Mean anomaly
293.1332°
Rev number
9,212

§ Raw data

2024-174A1 61238U 24174A   26144.75103576  .00003861  00000+0  18679-3 0  99902 61238  97.4477 152.8454 0001833  67.0096 293.1332 15.19178195 92126

JSON: /api/v1/satellites/61238 · /tle

For live sub-satellite position, see the globe view (requires WebGL).

§ Visibility from observer

Set your observer location to see the next 7 days of passes ≥ 10°. The values pass through the URL so the page stays shareable.

No JS? Fill the form by hand. The geolocation button needs JavaScript.